Location: South Cushing
(43.9686°N, 69.2945°W)
Time: 23:06:19
(UTC-05:00)

N. Korean satellite - Visible Passes

Search period start: 18 February 2018 00:00
Search period end: 28 February 2018 00:00
Orbit: 459 x 514 km, 97.2° (Epoch: 18 February)

Date Brightness Start Highest point End Pass type
(mag) Time Alt. Az. Time Alt. Az. Time Alt. Az.
18 Feb 9.9 18:27:11 10° SW 18:29:23 16° W 18:31:36 10° NW visible
19 Feb 8.7 05:51:20 10° NNE 05:54:42 34° E 05:58:05 10° SSE visible
19 Feb 8.7 18:02:25 10° SSW 18:05:29 30° W 18:08:37 10° NNW visible
20 Feb 9.9 05:28:13 10° NE 05:30:51 18° E 05:33:29 10° SE visible
20 Feb 7.0 17:38:16 10° S 17:41:41 64° W 17:45:09 10° NNW visible
22 Feb 9.9 18:25:35 10° SW 18:27:53 17° W 18:30:11 10° NW visible
23 Feb 8.8 05:49:51 10° NNE 05:53:14 33° E 05:56:38 10° SSE visible
23 Feb 8.7 18:00:52 10° SSW 18:03:59 32° W 18:07:10 10° NNW visible
24 Feb 10.0 05:26:44 10° NE 05:29:22 18° E 05:31:58 10° SE visible
26 Feb 9.9 18:23:56 10° SW 18:26:19 17° W 18:28:44 10° NW visible
27 Feb 8.6 17:59:14 10° SSW 18:02:24 33° W 18:05:39 10° NNW visible
